Weather Roundup
Issued by NWS

Home | Current Version | Previous Version | Text Only | Print | Product List | Glossary On
Versions: 1 2 3 4 5 6 7 8 9 10 11 12 13 14 15 16 17 18 19 20 21 22 23 24 25 26 27 28 29 30 31 32 33 34 35 36 37 38 39 40 41 42 43 44 45 46 47 48 49 50
000
NZUS93 KARX 241810
HRRWXR

CURRENT HOURLY OBSERVATIONS ACROSS
MUCH OF THE UPPER MISSISSIPPI VALLEY
NATIONAL WEATHER SERVICE LA CROSSE WI
100 PM CDT WED MAY 24 2017


...SOUTHEAST MINNESOTA...


CITY           SKY/WX    TMP DP  RH WIND       PRES   REMARKS
ROCHESTER      MOSUNNY   59  49  69 N14       29.72F
ROCHESTER/MAYO NOT AVBL
WINONA         CLOUDY    61  46  59 NE7       29.70F
AUSTIN         CLOUDY    57  48  72 N8        29.71F
ALBERT LEA     CLOUDY    55  48  76 N7        29.72S
DODGE CENTER   MOSUNNY   57  48  72 N6        29.71F
PRESTON        CLOUDY    56  47  69 N8        29.70F
OWATONNA       CLOUDY    55  46  71 N8        29.73S
FARIBAULT      CLOUDY    57  48  72 N8        29.74S
$$

...ELSEWHERE IN MINNESOTA...


CITY           SKY/WX    TMP DP  RH WIND       PRES   REMARKS
MINNEAPOLIS    CLOUDY    59  44  57 NE6       29.74S
INTNL FALLS    MOSUNNY   63  36  36 VRB6      29.78F
DULUTH         MOSUNNY   57  43  59 E16G25    29.78F
RED WING       CLOUDY    61  43  51 N6        29.71S
REDWOOD FALLS  CLOUDY    60  42  51 E10       29.74F
MANKATO        NOT AVBL
WORTHINGTON    CLOUDY    55  45  67 NE12      29.75F
FAIRMONT       CLOUDY    53  46  77 NE6       29.75F
$$

...SOUTHWEST WISCONSIN...


CITY           SKY/WX    TMP DP  RH WIND       PRES   REMARKS
LA CROSSE      CLOUDY    58  49  72 N8        29.69F
PRAIRIE DU CHI CLOUDY    55  47  72 N8        29.67S
BOSCOBEL       CLOUDY    60  49  66 N8        29.66F
LONE ROCK      CLOUDY    56  49  77 NE12      29.66S
PLATTEVILLE    CLOUDY    58  52  81 N12       29.65S
FORT MC COY    CLOUDY    54  49  85 N9        29.70S
CAMP DOUGLAS   CLOUDY    54  50  87 N9        29.68S
MAUSTON-NEW LI CLOUDY    54  50  86 N5        29.67S FOG
VIROQUA        CLOUDY    51  49  90 MISG      29.69R
WIS DELLS      CLOUDY    52  49  89 NE7       29.67S FOG
$$

...ELSEWHERE IN WISCONSIN...


CITY           SKY/WX    TMP DP  RH WIND       PRES   REMARKS
MILWAUKEE      CLOUDY    56  52  86 N17G23    29.60F
MADISON        CLOUDY    53  51  93 N13       29.64S
GREEN BAY      CLOUDY    51  51 100 NE12      29.70S
EAU CLAIRE     CLOUDY    60  46  59 NE12      29.71F
BLACK RVR FLS  CLOUDY    55  47  73 N7        29.70S
MEDFORD        CLOUDY    52  46  79 NE8       29.71F
WAUSAU         CLOUDY    52  48  86 NE7       29.69S
WIS RAPIDS     CLOUDY    54  49  83 NE8       29.70S
MARSHFIELD     CLOUDY    53  47  79 NE9       29.69S
RICE LAKE      CLOUDY    57  45  63 NE12G18   29.75F
$$

...NORTHEAST IOWA...


CITY           SKY/WX    TMP DP  RH WIND       PRES   REMARKS
WATERLOO       CLOUDY    57  49  74 N15       29.67F
DUBUQUE        CLOUDY    56  49  77 N10       29.64S
DECORAH        CLOUDY    54  48  82 N7G15     29.67F
MASON CITY     CLOUDY    56  48  74 N12       29.72F
CHARLES CITY   CLOUDY    57  50  77 NE13      29.69F
OELWEIN        CLOUDY    55  50  82 NE17      29.67F
$$

...ELSEWHERE IN IOWA...


CITY           SKY/WX    TMP DP  RH WIND       PRES   REMARKS
DES MOINES     CLOUDY    58  50  75 N10       29.69S
IOWA CITY      CLOUDY    60  50  69 NE10      29.65S
FORT DODGE     CLOUDY    57  48  72 N7        29.73S
MARSHALLTOWN   CLOUDY    57  51  80 N14       29.67F
CEDAR RAPIDS   CLOUDY    58  51  78 N13       29.64S
$$

...NORTHERN ILLINOIS...


CITY           SKY/WX    TMP DP  RH WIND       PRES   REMARKS
CHICAGO-OHARE  CLOUDY    59  50  72 NE17      29.56S
CHICAGO-MIDWAY CLOUDY    59  52  77 N14       29.55R
MOLINE         CLOUDY    61  48  62 N7        29.60S
ROCKFORD       CLOUDY    58  54  86 N14       29.61R
PEORIA         CLOUDY    64  55  72 NE10G16   29.56F
$$

NOTE: "FAIR" INDICATES FEW OR NO CLOUDS BELOW 12,000 FEET WITH NO
SIGNIFICANT WEATHER AND/OR OBSTRUCTIONS TO VISIBILITY. WIND
SPEEDS ARE IN MILES-PER-HOUR.




USA.gov is the U.S. government's official web portal to all federal, state and local government web resources and services.